Location: Dehesa de la Cepeda
(40.6574°N, 4.3013°W)
Time: 09:52:11
(UTC+00:00)

Cosmos 1844 - Pass Details

Date: 05 July 2020
Orbit: 822 x 868 km, 70.9° (Epoch: 07 August)

Event Time Altitude Azimuth Distance (km) Brightness Sun altitude
Rises 22:00:43 0° 332° (NNW) 3,454 8.5 -18.7°
Reaches altitude 10° 22:03:14 10° 329° (NNW) 2,508 7.4 -18.9°
Maximum altitude 22:08:54 61° 251° (WSW) 970 4.0 -19.5°
Enters shadow 22:11:36 30° 183° (S) 1,468 4.5 -19.8°
